Temperature
23 23 23 23 22 22 23 24 24 23 22 21 20 19 18 17 17 16 16 16 15 15 15 15 15 16 15 15 16 15 15 15 15 15 15 15 15 15 15 14 14 14 14 14
23 22 22 22 22 22 21 22 22 21 21 20 19 18 18 17 16 16 16 15 15 15 15 15 15 15 15 15 15 15 15 15 15 15 15 15 15 15 14 15 14 14 14 14
23 22 22 22 22 21 21 21 21 21 21 19 19 18 17 16 16 15 15 14 14 14 14 14 14 14 14 14 14 14 14 14 14 14 14 14 14 14 14 14 14 14 14 14
23 22 21 22 20 20 20 20 20 20 19 18 18 16 16 15 15 15 14 14 14 14 14 14 14 14 14 14 14 14 14 14 14 14 14 14 14 14 14 14 14 14 14 14
23 22 22 20 20 20 20 20 19 19 19 17 17 17 16 14 14 14 14 13 13 13 13 14 14 14 14 13 13 13 13 13 13 13 13 13 13 13 13 13 13 13 14 14
22 22 22 22 20 19 20 20 19 18 18 17 17 19 18 14 13 13 13 13 13 13 13 13 13 13 13 13 13 13 13 13 13 13 13 13 13 13 13 13 13 13 13 13
21 22 22 20 18 19 20 21 18 18 17 17 17 18 15 13 13 13 13 13 13 12 13 12 12 12 12 12 12 12 12 12 12 13 13 13 13 13 13 12 12 12 13 13
21 21 21 18 18 20 20 18 17 17 17 16 16 14 13 13 12 12 12 12 12 12 12 12 12 12 12 12 12 12 12 12 12 12 12 12 12 12 12 12 12 12 12 12
21 21 18 17 18 17 16 17 16 16 15 15 14 13 13 12 12 12 12 12 11 11 11 11 11 11 11 11 11 11 11 12 12 12 12 12 12 12 12 12 12 12 12 12
19 18 17 16 15 15 15 15 15 14 14 14 13 13 12 12 12 11 11 11 11 11 11 10 10 10 10 10 10 10 11 11 11 11 11 11 11 11 11 11 11 11 11 11
19 18 16 15 14 14 14 14 14 13 13 13 13 12 12 12 11 11 11 11 10 10 10 10 10 10 10 10 10 10 10 10 11 11 11 11 11 11 11 11 11 10 10 11
19 18 18 16 14 13 13 13 13 13 12 12 12 12 11 11 11 11 10 10 10 10 10 9 9 9 9 9 9 9 9 9 10 10 10 10 10 10 10 10 10 10 10 10
17 15 15 14 13 13 13 13 12 12 12 12 11 11 11 11 10 10 10 10 10 9 9 9 9 9 9 9 8 8 9 9 9 9 9 9 9 9 9 10 10 10 10 10
13 13 13 13 13 12 12 12 12 11 11 11 11 11 10 10 10 10 10 9 9 9 9 8 8 8 8 8 8 8 8 8 8 8 8 8 8 8 8 8 9 9 9 10
12 13 13 12 12 12 11 11 11 11 11 10 10 10 10 10 9 9 9 9 9 8 8 8 8 8 7 7 7 7 7 7 7 7 7 7 7 8 8 8 8 8 8 9
12 12 12 12 11 11 11 11 11 11 10 10 10 10 9 9 9 9 9 8 8 8 8 8 7 7 7 7 7 7 7 7 7 6 6 7 7 7 7 7 7 7 7 8
12 12 11 11 11 11 11 10 10 10 10 10 9 9 9 9 8 8 8 8 8 8 7 7 7 7 6 6 6 6 6 6 6 6 6 6 6 6 6 6 7 7 7 7
12 12 11 11 11 10 10 10 10 10 9 9 9 9 8 8 8 8 8 8 7 7 7 7 7 6 6 6 6 6 6 6 6 5 6 6 6 6 6 6 6 6 6 7
11 11 11 10 10 10 10 10 10 9 9 9 8 8 8 8 8 8 8 7 7 7 7 7 6 6 6 6 6 5 5 5 5 5 5 5 5 5 5 5 5 5 6 6
10 10 10 10 10 9 9 9 9 9 9 8 8 8 8 8 8 7 7 7 7 7 6 6 6 6 6 6 5 5 5 5 5 5 5 5 5 5 5 5 5 5 5 5
10 10 9 9 9 9 9 9 9 8 8 8 7 7 7 7 7 7 7 7 7 6 6 6 5 5 5 5 5 5 4 4 4 4 4 4 4 4 4 4 4 5 5 5
9 9 9 9 9 9 9 8 8 8 8 7 7 7 7 7 7 6 6 6 6 6 5 5 5 5 5 4 4 4 4 4 4 4 4 4 4 4 4 4 4 4 4 4
9 9 8 8 8 8 8 8 8 7 7 7 7 7 6 6 6 6 6 6 6 5 5 5 5 4 4 4 4 4 4 4 4 4 4 3 4 3 3 3 3 4 4 4
8 8 8 8 8 7 7 7 7 7 7 6 6 6 6 6 6 6 6 5 5 5 5 5 5 4 4 4 4 4 4 4 3 3 3 3 3 3 3 3 3 3 3 4
7 7 7 7 7 7 7 7 6 6 6 6 6 6 6 5 5 5 5 5 5 5 4 4 4 4 4 3 3 3 3 3 3 3 3 3 3 3 3 3 3 3 3 3
7 6 6 6 6 6 6 6 6 6 6 6 5 5 5 5 5 5 5 5 4 4 4 4 4 4 3 3 3 3 3 3 3 3 3 3 3 3 3 3 2 3 3 3
6 6 6 6 6 6 6 5 5 5 5 5 5 5 5 5 5 5 4 4 4 4 4 4 4 3 3 3 3 3 2 3 3 3 3 3 3 2 2 2 2 2 3 3
Wind_Speed
3 3 2 2 3 3 3 3 3 2 3 3 3 3 5 6 7 9 10 11 11 10 10 9 9 7 6 6 5 4 3 4 5 6 6 6 7 7 8 8 8 9 8 8
4 3 3 2 2 3 3 2 3 4 3 3 4 4 4 6 7 9 10 11 11 11 11 11 10 9 7 7 6 5 4 5 5 6 6 6 7 7 8 8 8 8 9 9
5 4 4 5 4 5 4 3 5 4 3 6 5 4 4 5 7 8 8 9 10 11 11 11 10 10 9 7 6 5 5 6 6 6 6 7 7 7 8 8 8 9 9 10
4 5 7 2 4 3 4 3 3 2 5 6 5 4 3 4 5 6 7 8 9 10 10 10 10 10 9 8 7 6 6 7 7 7 7 7 8 8 8 8 8 9 10 10
5 6 4 4 5 5 5 4 4 5 6 6 5 4 3 4 5 5 6 7 7 9 9 10 11 11 10 9 8 8 8 9 8 8 8 8 9 9 9 9 9 9 10 10
6 6 5 4 6 4 5 5 6 6 7 6 5 4 0 2 3 4 5 6 7 8 9 10 11 10 10 10 10 10 10 10 10 10 9 10 10 10 9 8 9 9 10 10
9 7 4 5 6 7 7 3 7 6 6 6 5 1 3 2 2 3 4 6 7 7 8 9 10 11 11 11 11 11 11 11 11 11 11 11 10 9 9 9 9 10 10 10
7 8 5 8 8 7 2 5 7 6 5 5 3 2 2 1 1 3 4 6 7 7 8 9 10 11 11 12 13 13 12 12 12 12 11 10 10 10 9 9 10 10 10 10
5 2 5 7 5 3 3 4 5 5 4 4 4 3 2 1 1 3 4 5 6 7 8 9 10 11 12 13 13 13 13 13 12 13 11 10 10 10 9 9 9 9 9 9
4 5 5 6 4 4 4 4 4 5 5 4 4 3 2 1 2 3 4 5 6 8 9 10 11 11 12 13 14 14 14 13 13 12 11 10 9 9 9 9 9 10 10 10
7 5 5 7 7 7 6 6 6 5 4 4 3 3 3 2 3 3 4 5 6 8 9 11 11 12 12 13 14 14 14 13 13 12 12 11 10 9 11 11 10 11 11 11
7 8 7 7 9 9 8 7 6 5 4 3 3 4 4 4 4 4 5 6 7 8 10 11 12 13 13 13 14 15 14 13 12 11 11 11 11 11 11 13 13 15 15 15
3 5 5 5 8 9 8 7 6 5 5 4 4 5 5 5 5 6 7 8 9 10 10 12 12 13 14 14 14 15 15 14 12 12 12 12 12 12 13 12 12 15 16 17
6 6 6 7 8 8 7 7 5 5 5 5 5 5 5 6 6 7 8 9 10 10 11 12 13 13 14 14 15 15 15 14 13 12 12 12 12 12 12 13 13 12 12 14
9 9 7 6 7 8 7 7 6 5 5 5 5 6 7 7 8 8 9 9 10 11 12 12 13 14 14 14 15 16 14 12 13 13 13 13 13 13 13 14 13 13 12 11
9 8 8 8 8 8 8 8 7 6 6 6 6 7 8 8 9 10 10 10 11 12 12 13 14 14 14 14 15 14 13 15 15 14 14 13 13 13 13 13 14 13 13 12
11 11 10 10 9 8 8 8 8 7 7 7 8 8 8 9 10 11 11 11 11 12 13 14 14 14 14 14 15 13 13 14 16 15 13 14 13 14 14 14 14 14 14 13
11 10 9 9 8 8 8 8 8 8 8 8 8 9 9 10 11 12 12 12 13 13 14 14 14 14 15 15 14 13 13 14 14 14 14 14 14 15 15 15 15 16 14 13
9 8 8 8 7 7 8 8 8 8 8 8 9 10 11 12 12 13 13 13 14 15 14 14 13 15 16 16 15 13 14 15 15 15 15 15 16 15 15 15 15 15 14 13
7 7 7 7 7 7 8 8 8 8 8 9 10 11 12 12 12 13 14 14 13 13 14 14 15 15 16 15 15 14 15 16 16 16 15 15 15 16 16 15 15 15 15 14
7 7 7 7 7 8 8 9 8 9 9 10 11 12 13 13 13 13 13 14 14 13 13 15 13 13 14 14 16 15 15 15 16 16 16 16 16 16 16 16 15 15 14 14
6 6 7 7 8 9 8 8 9 10 10 10 11 12 13 13 13 13 14 13 13 12 12 12 12 14 16 18 15 15 15 16 15 15 15 15 15 15 15 16 15 14 13 13
6 7 8 8 9 9 9 9 10 10 11 11 12 12 13 12 11 12 13 12 12 13 12 13 15 18 21 17 15 15 15 16 15 15 15 15 15 15 14 15 14 14 13 13
7 8 8 9 9 10 11 11 11 10 11 12 12 12 12 11 11 11 12 12 13 14 13 14 17 20 20 14 14 14 15 15 15 15 15 15 14 14 14 14 14 13 13 14
9 9 10 10 10 10 11 11 11 11 11 10 12 12 11 10 11 11 12 13 14 14 13 15 18 18 15 13 14 14 14 15 15 15 15 14 14 13 13 13 13 13 12 11
10 9 9 10 10 9 9 9 9 9 10 10 10 10 10 10 11 11 11 12 15 14 13 12 13 13 12 13 13 14 15 15 15 14 14 14 14 13 13 12 14 12 11 10
10 9 9 9 9 9 9 9 9 10 10 11 11 11 11 10 10 11 12 11 11 11 11 11 12 12 12 12 12 13 14 14 14 13 13 12 12 11 12 13 11 10 10 9
Wind_Direction
90 89 126 141 162 185 221 259 250 168 146 128 98 74 58 47 41 38 34 29 23 17 13 9 5 359 355 347 341 330 313 297 289 286 280 275 271 266 265 264 263 263 261 256
155 130 147 169 190 190 204 210 177 154 145 112 113 94 71 51 39 35 29 23 18 14 10 4 0 355 349 343 337 327 315 307 300 293 288 281 277 272 268 264 264 263 259 258
212 174 225 238 224 204 191 190 188 194 154 142 137 105 71 47 36 30 24 18 13 10 7 2 357 351 345 339 332 325 318 315 308 298 291 286 282 275 268 263 261 261 259 257
223 205 234 114 102 154 164 163 177 135 137 155 148 127 92 49 31 24 17 11 8 4 2 359 356 351 344 339 333 325 321 315 313 304 295 290 285 279 274 271 263 259 260 258
225 229 232 176 173 177 186 178 174 163 150 147 143 155 116 49 26 17 10 5 2 358 356 357 356 351 344 341 336 329 324 316 311 304 297 291 284 279 277 275 270 262 260 259
217 230 237 168 148 172 198 192 166 173 166 165 179 223 194 51 20 15 10 4 359 355 355 356 353 348 345 343 338 333 325 316 311 304 295 288 284 282 279 273 271 270 263 260
224 235 237 128 145 170 203 180 155 176 179 184 205 305 76 86 34 13 6 0 355 354 354 351 346 344 342 341 338 330 322 315 310 305 297 289 285 282 279 275 273 270 267 261
213 227 220 144 165 193 136 106 153 170 179 184 167 108 110 87 12 356 355 355 351 348 348 345 343 340 336 336 332 327 321 314 310 306 300 294 289 283 279 275 271 268 268 265
215 208 96 155 164 125 127 153 161 167 169 172 174 177 182 247 323 337 340 343 342 340 338 340 342 339 332 330 327 323 320 316 311 306 300 294 289 286 282 275 270 270 268 267
220 207 180 180 176 174 176 173 167 167 167 177 189 197 208 244 294 320 329 333 333 333 333 334 335 332 329 327 325 321 319 318 315 310 305 298 291 284 280 277 273 271 269 268
223 195 182 197 193 178 169 164 161 162 171 183 194 206 225 254 283 303 313 317 321 324 325 324 325 325 326 326 325 321 318 318 317 314 306 299 290 283 279 275 273 274 273 270
224 198 195 187 180 175 174 175 174 175 187 201 213 224 239 260 276 288 298 306 312 316 316 318 321 321 323 323 322 320 319 319 316 312 307 301 296 291 275 267 268 264 264 266
214 162 175 161 172 180 186 188 188 197 210 223 232 239 249 262 273 282 290 298 304 309 311 313 316 317 320 321 319 316 314 313 311 309 307 302 298 295 295 287 267 259 256 256
194 173 182 184 183 185 191 190 196 211 225 234 243 246 254 265 275 281 288 295 301 304 305 308 311 313 316 316 314 312 311 310 307 304 303 301 298 294 292 292 292 289 273 257
199 203 201 186 185 190 192 194 206 222 235 244 247 249 255 265 274 280 288 294 297 298 301 305 307 310 312 312 311 310 310 309 308 305 302 299 297 294 291 289 287 287 288 279
186 188 189 190 191 192 196 205 217 232 242 248 251 256 262 268 275 281 286 291 294 296 300 302 303 307 310 309 308 306 305 302 301 301 300 298 296 295 292 290 288 286 283 282
187 191 193 196 197 201 208 217 229 240 247 251 256 263 268 273 277 280 285 288 290 292 295 297 300 305 307 306 304 304 303 303 299 297 298 298 297 295 293 290 287 286 283 280
201 202 201 203 206 211 220 229 238 245 250 256 260 264 268 272 277 282 286 289 290 291 293 296 300 304 302 302 303 303 301 301 301 300 298 297 297 295 292 290 288 286 286 282
195 202 209 214 218 223 230 237 243 248 254 258 261 264 268 273 278 282 286 287 288 291 294 297 302 298 298 300 302 297 297 298 298 297 297 296 294 292 290 289 288 287 285 282
195 204 212 220 226 233 239 244 249 252 256 259 264 268 273 276 280 283 284 283 283 288 294 299 299 298 298 300 301 298 297 297 297 297 297 297 296 295 292 289 287 285 282 278
203 211 219 228 236 241 245 248 250 253 257 260 264 269 275 280 282 283 284 284 286 291 295 296 293 294 297 301 301 297 295 295 296 297 297 296 295 294 291 290 288 285 282 279
221 227 233 239 243 248 250 251 251 254 258 262 265 270 275 279 281 282 280 281 286 291 293 292 293 295 300 301 297 295 294 295 295 296 296 296 294 293 292 292 290 287 283 279
242 245 247 247 249 253 255 254 253 255 259 263 267 270 273 278 281 282 285 287 288 292 292 289 293 297 298 298 295 294 294 294 296 296 296 295 293 292 292 292 290 287 283 279
254 254 254 254 254 253 255 257 259 260 263 266 267 269 274 278 278 278 281 286 285 287 287 287 289 293 296 295 294 294 294 295 295 295 295 295 294 292 291 291 290 288 284 280
255 256 254 253 252 255 259 264 265 265 266 268 270 272 274 274 277 283 285 287 288 287 289 291 292 294 295 294 294 295 296 296 295 296 295 295 293 292 291 291 290 289 286 281
255 254 253 251 254 259 262 263 264 266 269 271 275 277 278 278 279 281 282 285 287 290 291 293 295 295 294 296 297 298 297 297 296 295 295 295 293 293 292 291 291 290 289 284
256 254 253 255 256 255 257 259 261 265 268 271 276 278 279 280 280 283 284 286 289 291 293 295 296 296 295 295 295 294 295 296 298 298 298 296 296 294 293 292 291 292 292 287
Height
1506 1509 1509 1511 1513 1513 1512 1510 1512 1516 1521 1525 1528 1530 1531 1531 1530 1528 1527 1525 1523 1521 1519 1517 1515 1513 1512 1511 1509 1508 1508 1507 1506 1506 1505 1504 1503 1502 1502 1501 1500 1499 1499 1498
1510 1511 1511 1513 1513 1514 1515 1514 1515 1519 1523 1525 1529 1530 1531 1530 1530 1528 1527 1525 1524 1521 1519 1517 1515 1513 1511 1510 1508 1507 1506 1505 1504 1503 1502 1501 1500 1499 1498 1497 1496 1496 1495 1494
1508 1511 1512 1514 1511 1513 1515 1515 1515 1518 1521 1526 1528 1530 1530 1530 1529 1529 1527 1526 1524 1522 1519 1517 1515 1512 1510 1508 1507 1506 1504 1503 1502 1500 1499 1497 1496 1495 1494 1493 1492 1491 1490 1489
1507 1513 1520 1511 1513 1514 1515 1517 1517 1519 1522 1525 1527 1529 1530 1530 1529 1528 1527 1526 1524 1522 1519 1517 1514 1512 1509 1507 1505 1504 1502 1500 1499 1497 1495 1494 1492 1491 1490 1489 1488 1486 1485 1485
1507 1510 1511 1513 1512 1513 1514 1516 1518 1519 1522 1525 1527 1527 1528 1529 1528 1528 1526 1525 1523 1521 1519 1516 1513 1510 1508 1506 1504 1502 1499 1498 1496 1494 1492 1490 1488 1487 1485 1484 1483 1481 1480 1479
1508 1511 1511 1506 1509 1513 1514 1515 1517 1519 1521 1523 1524 1522 1524 1527 1527 1526 1525 1523 1521 1519 1517 1515 1512 1509 1507 1504 1502 1499 1497 1495 1493 1490 1488 1486 1484 1483 1481 1479 1478 1476 1475 1474
1505 1505 1501 1505 1510 1513 1515 1510 1515 1517 1519 1521 1522 1522 1525 1525 1525 1524 1523 1521 1519 1518 1515 1513 1510 1507 1505 1502 1499 1497 1494 1491 1489 1486 1484 1482 1480 1478 1476 1474 1473 1471 1470 1468
1502 1505 1504 1506 1508 1507 1507 1510 1513 1515 1518 1520 1521 1522 1523 1523 1523 1522 1521 1519 1517 1515 1513 1510 1508 1505 1503 1500 1497 1493 1490 1487 1484 1482 1480 1477 1475 1473 1471 1469 1467 1465 1464 1462
1496 1499 1502 1504 1505 1508 1509 1511 1513 1514 1516 1518 1519 1520 1521 1521 1520 1520 1518 1517 1515 1513 1510 1508 1505 1502 1499 1496 1493 1489 1486 1483 1480 1477 1475 1472 1470 1468 1466 1464 1462 1460 1459 1457
1498 1499 1502 1504 1506 1507 1508 1510 1512 1513 1515 1516 1517 1518 1518 1518 1518 1517 1516 1514 1512 1510 1507 1505 1502 1499 1496 1492 1489 1486 1482 1479 1476 1472 1469 1467 1464 1462 1460 1458 1457 1455 1453 1451
1495 1497 1501 1503 1504 1505 1507 1509 1510 1512 1513 1514 1515 1515 1516 1515 1515 1514 1512 1511 1509 1507 1504 1501 1498 1495 1492 1489 1485 1482 1478 1475 1471 1468 1464 1461 1458 1456 1454 1452 1451 1448 1446 1445
1489 1492 1495 1498 1500 1503 1505 1506 1508 1509 1511 1511 1512 1512 1512 1512 1511 1510 1509 1507 1505 1503 1500 1497 1494 1491 1488 1485 1481 1478 1474 1470 1466 1463 1459 1456 1452 1449 1446 1445 1442 1440 1439 1437
1489 1491 1493 1496 1498 1500 1502 1504 1506 1507 1508 1508 1509 1509 1509 1508 1508 1506 1505 1503 1501 1498 1495 1493 1490 1486 1483 1480 1477 1473 1469 1465 1461 1458 1454 1450 1447 1443 1439 1436 1434 1432 1430 1429
1487 1490 1492 1494 1496 1498 1500 1501 1503 1504 1504 1505 1505 1505 1505 1504 1503 1502 1500 1498 1496 1494 1491 1488 1485 1481 1478 1475 1471 1468 1464 1460 1456 1452 1448 1445 1441 1437 1433 1430 1426 1423 1422 1420
1484 1486 1488 1490 1493 1495 1496 1498 1499 1500 1501 1501 1501 1500 1500 1499 1498 1497 1495 1493 1491 1488 1485 1483 1479 1476 1473 1469 1466 1462 1458 1454 1450 1446 1442 1439 1435 1431 1427 1424 1420 1417 1414 1412
1481 1483 1485 1487 1489 1491 1492 1494 1495 1496 1496 1496 1496 1496 1495 1494 1493 1491 1490 1488 1486 1483 1480 1477 1474 1470 1467 1463 1460 1456 1452 1448 1444 1440 1436 1432 1428 1424 1421 1417 1414 1410 1407 1405
1477 1479 1481 1484 1485 1487 1488 1489 1490 1491 1491 1491 1491 1491 1490 1489 1487 1486 1484 1482 1480 1477 1474 1471 1468 1464 1461 1458 1454 1450 1445 1441 1437 1433 1429 1425 1421 1417 1414 1410 1406 1403 1400 1398
1473 1475 1478 1479 1481 1483 1484 1485 1486 1486 1486 1486 1486 1485 1484 1483 1482 1480 1478 1476 1473 1470 1468 1465 1462 1458 1455 1451 1448 1443 1439 1435 1431 1427 1422 1418 1414 1410 1406 1402 1399 1395 1392 1390
1469 1472 1474 1476 1477 1479 1479 1480 1481 1481 1481 1481 1480 1479 1478 1477 1476 1474 1472 1469 1466 1463 1460 1458 1455 1451 1448 1445 1441 1436 1432 1428 1424 1419 1415 1411 1406 1402 1398 1394 1391 1387 1384 1381
1466 1468 1470 1472 1473 1474 1475 1475 1475 1475 1475 1475 1474 1473 1472 1471 1469 1467 1465 1462 1459 1457 1454 1451 1447 1444 1441 1437 1434 1429 1425 1421 1416 1412 1408 1403 1399 1394 1390 1386 1382 1379 1375 1372
1462 1464 1466 1467 1468 1469 1469 1470 1470 1469 1469 1469 1468 1467 1465 1464 1462 1460 1457 1454 1452 1450 1447 1443 1440 1437 1434 1430 1426 1422 1417 1413 1408 1404 1399 1395 1390 1385 1381 1377 1373 1369 1366 1364
1459 1460 1461 1462 1463 1463 1464 1464 1464 1463 1463 1462 1461 1460 1458 1456 1454 1452 1450 1447 1444 1442 1439 1436 1433 1430 1426 1422 1418 1413 1409 1405 1400 1396 1391 1386 1381 1376 1372 1368 1364 1361 1358 1355
1454 1455 1456 1457 1457 1457 1458 1458 1457 1457 1456 1455 1454 1452 1451 1449 1447 1445 1442 1440 1437 1434 1431 1428 1425 1421 1418 1414 1410 1405 1401 1396 1392 1387 1382 1377 1372 1368 1363 1359 1356 1352 1349 1347
1450 1450 1450 1451 1451 1451 1451 1451 1451 1450 1449 1448 1447 1445 1444 1442 1439 1437 1435 1432 1429 1426 1423 1420 1416 1413 1409 1406 1402 1397 1393 1388 1384 1379 1374 1369 1364 1360 1356 1351 1347 1344 1341 1338
1444 1444 1445 1445 1445 1444 1445 1444 1444 1443 1442 1440 1439 1438 1437 1434 1432 1430 1428 1425 1422 1419 1415 1412 1409 1405 1402 1398 1394 1390 1385 1381 1376 1371 1366 1361 1356 1352 1348 1344 1340 1336 1333 1331
1438 1438 1438 1438 1438 1438 1438 1437 1436 1435 1435 1433 1432 1431 1429 1427 1425 1422 1420 1417 1415 1412 1408 1405 1402 1398 1394 1390 1386 1382 1378 1373 1368 1363 1358 1353 1349 1344 1341 1337 1333 1330 1326 1324
1432 1432 1431 1431 1431 1431 1431 1430 1429 1428 1427 1426 1424 1423 1421 1420 1417 1415 1413 1411 1408 1405 1402 1399 1395 1391 1387 1383 1379 1375 1370 1366 1361 1356 1351 1346 1342 1338 1334 1330 1327 1324 1321 1318